contact:dominique.lefevre@mio.osupytheas.fr, maurice.libes@osupytheas.fr, didier.mallarino@osupytheas.fr
Project:EMSO http://www.emso-fr.org/EMSO-France
Depth: 2436.0 m
Title:EMSO Ligure Ouest : Data MII capteur CSTAR
DateTime,Latitude,Longitude,Instrument_Serial,Reference_Counts,Signal_Counts,Corrected_Signal_raw_counts,Calculated_Beam_c_inverse_meters,Internal_thermistor_counts
DateTime,Latitude,Longitude,Instrument_Serial,Reference_Counts,Signal_Counts,Corrected_Signal_raw_counts,Calculated_Beam_c_inverse_meters,Internal_thermistor_counts
2022-12-22T00:02:51,42.805,6.029,CST-1368DR,4438,4942,11838,01.108,551
2022-12-22T00:05:53,42.805,6.029,CST-1368DR,4438,4944,11842,01.107,551
2022-12-22T00:08:55,42.805,6.029,CST-1368DR,4438,4940,11832,01.110,551
2022-12-22T00:11:56,42.805,6.029,CST-1368DR,4438,4940,11833,01.110,551
2022-12-22T00:14:58,42.805,6.029,CST-1368DR,4438,4933,11816,01.115,551
2022-12-22T00:17:59,42.805,6.029,CST-1368DR,4438,4937,11825,01.112,551
2022-12-22T00:21:01,42.805,6.029,CST-1368DR,4438,4940,11833,01.110,551
2022-12-22T00:24:03,42.805,6.029,CST-1368DR,4438,4941,11835,01.109,551
2022-12-22T00:27:04,42.805,6.029,CST-1368DR,4438,4937,11825,01.112,551
2022-12-22T00:30:06,42.805,6.029,CST-1368DR,4438,4937,11825,01.112,551
2022-12-22T00:33:07,42.805,6.029,CST-1368DR,4438,4936,11824,01.113,551
2022-12-22T00:36:09,42.805,6.029,CST-1368DR,4438,4938,11829,01.111,551
2022-12-22T00:39:11,42.805,6.029,CST-1368DR,4438,4943,11840,01.107,551
2022-12-22T00:42:12,42.805,6.029,CST-1368DR,4438,4939,11831,01.110,551
2022-12-22T00:45:14,42.805,6.029,CST-1368DR,4438,4945,11844,01.106,551
2022-12-22T00:48:15,42.805,6.029,CST-1368DR,4438,4922,11790,01.124,551
2022-12-22T00:51:17,42.805,6.029,CST-1368DR,4438,4924,11795,01.122,551
2022-12-22T00:54:18,42.805,6.029,CST-1368DR,4438,4929,11807,01.118,551
2022-12-22T00:57:20,42.805,6.029,CST-1368DR,4438,4921,11788,01.125,551
2022-12-22T01:00:22,42.805,6.029,CST-1368DR,4438,4928,11805,01.119,551
2022-12-22T01:03:23,42.805,6.029,CST-1368DR,4438,4929,11806,01.119,551
2022-12-22T01:06:25,42.805,6.029,CST-1368DR,4438,4936,11822,01.113,551
2022-12-22T01:09:26,42.805,6.029,CST-1368DR,4438,4933,11816,01.115,551
2022-12-22T01:12:28,42.805,6.029,CST-1368DR,4438,4931,11812,01.117,551
2022-12-22T01:15:30,42.805,6.029,CST-1368DR,4438,4931,11810,01.117,551
2022-12-22T01:18:31,42.805,6.029,CST-1368DR,4438,4944,11843,01.106,551
2022-12-22T01:21:33,42.805,6.029,CST-1368DR,4438,4935,11821,01.114,551
2022-12-22T01:24:34,42.805,6.029,CST-1368DR,4438,4936,11824,01.113,551
2022-12-22T01:27:36,42.805,6.029,CST-1368DR,4438,4929,11807,01.118,551
2022-12-22T01:30:37,42.805,6.029,CST-1368DR,4438,4930,11809,01.118,551
2022-12-22T01:33:39,42.805,6.029,CST-1368DR,4438,4929,11806,01.119,551
2022-12-22T01:36:41,42.805,6.029,CST-1368DR,4438,4932,11814,01.116,551
2022-12-22T01:39:42,42.805,6.029,CST-1368DR,4438,4930,11808,01.118,551
2022-12-22T01:42:44,42.805,6.029,CST-1368DR,4438,4934,11819,01.114,551
2022-12-22T01:45:45,42.805,6.029,CST-1368DR,4438,4932,11814,01.116,551
2022-12-22T01:48:47,42.805,6.029,CST-1368DR,4438,4933,11816,01.115,551
2022-12-22T01:51:49,42.805,6.029,CST-1368DR,4438,4930,11808,01.118,551
2022-12-22T01:54:50,42.805,6.029,CST-1368DR,4438,4938,11828,01.111,551
2022-12-22T01:57:52,42.805,6.029,CST-1368DR,4438,4935,11821,01.114,551
2022-12-22T02:00:53,42.805,6.029,CST-1368DR,4438,4937,11825,01.112,551
2022-12-22T02:03:55,42.805,6.029,CST-1368DR,4438,4932,11815,01.116,551
2022-12-22T02:06:56,42.805,6.029,CST-1368DR,4438,4929,11807,01.118,551
2022-12-22T02:09:58,42.805,6.029,CST-1368DR,4438,4932,11814,01.116,551
2022-12-22T02:13:00,42.805,6.029,CST-1368DR,4438,4936,11824,01.113,551
2022-12-22T02:16:01,42.805,6.029,CST-1368DR,4438,4933,11816,01.115,551
2022-12-22T02:19:03,42.805,6.029,CST-1368DR,4438,4938,11827,01.112,551
2022-12-22T02:22:04,42.805,6.029,CST-1368DR,4438,4937,11825,01.112,551
2022-12-22T02:25:06,42.805,6.029,CST-1368DR,4438,4942,11837,01.108,551
2022-12-22T02:28:08,42.805,6.029,CST-1368DR,4438,4936,11824,01.113,551
2022-12-22T02:31:09,42.805,6.029,CST-1368DR,4438,4938,11827,01.112,551
2022-12-22T02:34:11,42.805,6.029,CST-1368DR,4438,4937,11825,01.112,551
2022-12-22T02:37:12,42.805,6.029,CST-1368DR,4438,4944,11843,01.106,551
2022-12-22T02:40:14,42.805,6.029,CST-1368DR,4438,4942,11837,01.108,551
2022-12-22T02:43:15,42.805,6.029,CST-1368DR,4438,4939,11831,01.110,551
2022-12-22T02:46:17,42.805,6.029,CST-1368DR,4438,4942,11837,01.108,551
2022-12-22T02:49:19,42.805,6.029,CST-1368DR,4438,4944,11843,01.106,551
2022-12-22T02:52:20,42.805,6.029,CST-1368DR,4438,4942,11839,01.108,551
2022-12-22T02:55:22,42.805,6.029,CST-1368DR,4438,4939,11831,01.110,551
2022-12-22T02:58:23,42.805,6.029,CST-1368DR,4438,4938,11828,01.111,551
2022-12-22T03:01:25,42.805,6.029,CST-1368DR,4438,4939,11830,01.111,551
2022-12-22T03:04:27,42.805,6.029,CST-1368DR,4438,4934,11819,01.114,551
2022-12-22T03:07:28,42.805,6.029,CST-1368DR,4438,4940,11833,01.110,551
2022-12-22T03:10:30,42.805,6.029,CST-1368DR,4438,4949,11855,01.102,551
2022-12-22T03:13:31,42.805,6.029,CST-1368DR,4438,4938,11829,01.111,551
2022-12-22T03:16:33,42.805,6.029,CST-1368DR,4438,4942,11839,01.108,551
2022-12-22T03:19:35,42.805,6.029,CST-1368DR,4438,4939,11831,01.110,551
2022-12-22T03:22:36,42.805,6.029,CST-1368DR,4438,4937,11825,01.112,551
2022-12-22T03:25:38,42.805,6.029,CST-1368DR,4438,4952,11861,01.100,551
2022-12-22T03:28:39,42.805,6.029,CST-1368DR,4438,4940,11832,01.110,551
2022-12-22T03:31:41,42.805,6.029,CST-1368DR,4438,4944,11842,01.107,551
2022-12-22T03:34:42,42.805,6.029,CST-1368DR,4438,4938,11828,01.111,551
2022-12-22T03:37:44,42.805,6.029,CST-1368DR,4438,4949,11855,01.102,551
2022-12-22T03:40:46,42.805,6.029,CST-1368DR,4438,4941,11836,01.109,551
2022-12-22T03:43:47,42.805,6.029,CST-1368DR,4438,4943,11840,01.107,551
2022-12-22T03:46:49,42.805,6.029,CST-1368DR,4438,4941,11835,01.109,551
2022-12-22T03:49:50,42.805,6.029,CST-1368DR,4438,4949,11855,01.102,551
2022-12-22T03:52:52,42.805,6.029,CST-1368DR,4438,4943,11840,01.107,551
2022-12-22T03:55:54,42.805,6.029,CST-1368DR,4438,4944,11843,01.106,551
2022-12-22T03:58:55,42.805,6.029,CST-1368DR,4438,4952,11862,01.100,551
2022-12-22T04:01:57,42.805,6.029,CST-1368DR,4438,4949,11854,01.103,551
2022-12-22T04:04:58,42.805,6.029,CST-1368DR,4438,4945,11845,01.106,551
2022-12-22T04:08:00,42.805,6.029,CST-1368DR,4438,4948,11852,01.103,551
2022-12-22T04:11:01,42.805,6.029,CST-1368DR,4438,4944,11842,01.107,551
2022-12-22T04:14:03,42.805,6.029,CST-1368DR,4437,4938,11831,01.110,551
2022-12-22T04:17:05,42.805,6.029,CST-1368DR,4438,4942,11838,01.108,551
2022-12-22T04:20:06,42.805,6.029,CST-1368DR,4438,4943,11839,01.108,551
2022-12-22T04:23:08,42.805,6.029,CST-1368DR,4438,4942,11837,01.108,551
2022-12-22T04:26:09,42.805,6.029,CST-1368DR,4438,4944,11843,01.106,551
2022-12-22T04:29:11,42.805,6.029,CST-1368DR,4438,4954,11866,01.098,551
2022-12-22T04:32:13,42.805,6.029,CST-1368DR,4438,4946,11848,01.105,551
2022-12-22T04:35:14,42.805,6.029,CST-1368DR,4438,4939,11830,01.111,551
2022-12-22T04:38:16,42.805,6.029,CST-1368DR,4438,4947,11849,01.104,551
2022-12-22T04:41:17,42.805,6.029,CST-1368DR,4438,4951,11860,01.100,551
2022-12-22T04:44:19,42.805,6.029,CST-1368DR,4438,4942,11839,01.108,551
2022-12-22T04:47:20,42.805,6.029,CST-1368DR,4438,4947,11849,01.104,551
2022-12-22T04:50:22,42.805,6.029,CST-1368DR,4438,4951,11859,01.101,551
2022-12-22T04:53:24,42.805,6.029,CST-1368DR,4438,4947,11849,01.104,551
2022-12-22T04:56:25,42.805,6.029,CST-1368DR,4438,4958,11875,01.095,551
2022-12-22T04:59:27,42.805,6.029,CST-1368DR,4438,4951,11860,01.100,551
2022-12-22T05:02:28,42.805,6.029,CST-1368DR,4438,4946,11847,01.105,551
2022-12-22T05:05:30,42.805,6.029,CST-1368DR,4438,4949,11854,01.103,551
2022-12-22T05:08:32,42.805,6.029,CST-1368DR,4438,4949,11854,01.103,551
2022-12-22T05:11:33,42.805,6.029,CST-1368DR,4438,4940,11833,01.110,551
2022-12-22T05:14:35,42.805,6.029,CST-1368DR,4438,4946,11846,01.105,551
2022-12-22T05:17:36,42.805,6.029,CST-1368DR,4438,4950,11857,01.102,551
2022-12-22T05:20:38,42.805,6.029,CST-1368DR,4438,4945,11845,01.106,551
2022-12-22T05:23:39,42.805,6.029,CST-1368DR,4438,4945,11846,01.105,551
2022-12-22T05:26:41,42.805,6.029,CST-1368DR,4437,4942,11841,01.107,551
2022-12-22T05:29:43,42.805,6.029,CST-1368DR,4438,4949,11855,01.102,551
2022-12-22T05:32:44,42.805,6.029,CST-1368DR,4438,4945,11846,01.105,551
2022-12-22T05:35:46,42.805,6.029,CST-1368DR,4438,4946,11848,01.105,551
2022-12-22T05:38:47,42.805,6.029,CST-1368DR,4438,4947,11849,01.104,551
2022-12-22T05:41:49,42.805,6.029,CST-1368DR,4437,4946,11849,01.104,551
2022-12-22T05:44:51,42.805,6.029,CST-1368DR,4438,4944,11843,01.106,551
2022-12-22T05:47:52,42.805,6.029,CST-1368DR,4438,4942,11838,01.108,551
2022-12-22T05:50:54,42.805,6.029,CST-1368DR,4437,4943,11842,01.107,551
2022-12-22T05:53:55,42.805,6.029,CST-1368DR,4437,4944,11845,01.106,551
2022-12-22T05:56:57,42.805,6.029,CST-1368DR,4438,4951,11859,01.101,551
2022-12-22T05:59:58,42.805,6.029,CST-1368DR,4437,4945,11848,01.105,551
2022-12-22T06:03:00,42.805,6.029,CST-1368DR,4438,4945,11846,01.105,551
2022-12-22T06:06:02,42.805,6.029,CST-1368DR,4437,4940,11836,01.109,551
2022-12-22T06:09:03,42.805,6.029,CST-1368DR,4438,4944,11843,01.106,551
2022-12-22T06:12:05,42.805,6.029,CST-1368DR,4438,4939,11830,01.111,551
2022-12-22T06:15:06,42.805,6.029,CST-1368DR,4437,4938,11830,01.111,551
2022-12-22T06:18:08,42.805,6.029,CST-1368DR,4438,4947,11849,01.104,551
2022-12-22T06:21:10,42.805,6.029,CST-1368DR,4437,4939,11834,01.109,551
2022-12-22T06:24:11,42.805,6.029,CST-1368DR,4437,4942,11841,01.107,551
2022-12-22T06:27:13,42.805,6.029,CST-1368DR,4437,4945,11848,01.105,551
2022-12-22T06:30:14,42.805,6.029,CST-1368DR,4438,4944,11843,01.106,551
2022-12-22T06:33:16,42.805,6.029,CST-1368DR,4437,4947,11853,01.103,551
2022-12-22T06:36:18,42.805,6.029,CST-1368DR,4438,4942,11837,01.108,551
2022-12-22T06:39:19,42.805,6.029,CST-1368DR,4437,4939,11832,01.110,551
2022-12-22T06:42:21,42.805,6.029,CST-1368DR,4437,4941,11838,01.108,551
2022-12-22T06:45:22,42.805,6.029,CST-1368DR,4438,4943,11840,01.107,551
2022-12-22T06:48:24,42.805,6.029,CST-1368DR,4437,4939,11833,01.110,551
2022-12-22T06:51:25,42.805,6.029,CST-1368DR,4438,4949,11854,01.103,551
2022-12-22T06:54:27,42.805,6.029,CST-1368DR,4437,4940,11835,01.109,551
2022-12-22T06:57:29,42.805,6.029,CST-1368DR,4437,4943,11842,01.107,551
2022-12-22T07:00:30,42.805,6.029,CST-1368DR,4437,4940,11836,01.109,551
2022-12-22T07:03:32,42.805,6.029,CST-1368DR,4438,4947,11849,01.104,551
2022-12-22T07:06:33,42.805,6.029,CST-1368DR,4437,4947,11852,01.103,551
2022-12-22T07:09:35,42.805,6.029,CST-1368DR,4437,4944,11844,01.106,551
2022-12-22T07:12:37,42.805,6.029,CST-1368DR,4438,4948,11853,01.103,551
2022-12-22T07:15:38,42.805,6.029,CST-1368DR,4437,4936,11825,01.112,551
2022-12-22T07:18:40,42.805,6.029,CST-1368DR,4438,4942,11837,01.108,551
2022-12-22T07:21:41,42.805,6.029,CST-1368DR,4437,4937,11829,01.111,551
2022-12-22T07:24:43,42.805,6.029,CST-1368DR,4438,4943,11840,01.107,551
2022-12-22T07:27:44,42.805,6.029,CST-1368DR,4437,4939,11834,01.109,551
2022-12-22T07:30:46,42.805,6.029,CST-1368DR,4437,4937,11828,01.111,551
2022-12-22T07:33:48,42.805,6.029,CST-1368DR,4437,4945,11848,01.105,551
2022-12-22T07:36:49,42.805,6.029,CST-1368DR,4437,4939,11832,01.110,551
2022-12-22T07:39:51,42.805,6.029,CST-1368DR,4437,4945,11847,01.105,551
2022-12-22T07:42:52,42.805,6.029,CST-1368DR,4437,4940,11835,01.109,551
2022-12-22T07:45:54,42.805,6.029,CST-1368DR,4437,4942,11840,01.107,551
2022-12-22T07:48:56,42.805,6.029,CST-1368DR,4437,4938,11831,01.110,551
2022-12-22T07:51:57,42.805,6.029,CST-1368DR,4437,4939,11832,01.110,551
2022-12-22T07:54:59,42.805,6.029,CST-1368DR,4437,4937,11829,01.111,551
2022-12-22T07:58:00,42.805,6.029,CST-1368DR,4437,4940,11836,01.109,551
2022-12-22T08:01:02,42.805,6.029,CST-1368DR,4437,4941,11838,01.108,551
2022-12-22T08:04:04,42.805,6.029,CST-1368DR,4437,4935,11823,01.113,551
2022-12-22T08:07:05,42.805,6.029,CST-1368DR,4437,4933,11819,01.114,551
2022-12-22T08:10:07,42.805,6.029,CST-1368DR,4437,4941,11838,01.108,551
2022-12-22T08:13:08,42.805,6.029,CST-1368DR,4437,4940,11835,01.109,551
2022-12-22T08:16:10,42.805,6.029,CST-1368DR,4437,4937,11829,01.111,551
2022-12-22T08:19:11,42.805,6.029,CST-1368DR,4437,4937,11828,01.111,551
2022-12-22T08:22:13,42.805,6.029,CST-1368DR,4438,4949,11855,01.102,551
2022-12-22T08:25:15,42.805,6.029,CST-1368DR,4437,4939,11832,01.110,551
2022-12-22T08:28:16,42.805,6.029,CST-1368DR,4437,4938,11831,01.110,551
2022-12-22T08:31:18,42.805,6.029,CST-1368DR,4437,4936,11825,01.112,551
2022-12-22T08:34:19,42.805,6.029,CST-1368DR,4437,4937,11829,01.111,551
2022-12-22T08:37:21,42.805,6.029,CST-1368DR,4437,4934,11821,01.114,551
2022-12-22T08:40:23,42.805,6.029,CST-1368DR,4437,4933,11820,01.114,551
2022-12-22T08:43:24,42.805,6.029,CST-1368DR,4437,4929,11809,01.118,551
2022-12-22T08:46:26,42.805,6.029,CST-1368DR,4437,4933,11818,01.115,551
2022-12-22T08:49:27,42.805,6.029,CST-1368DR,4437,4932,11815,01.116,551
2022-12-22T08:52:29,42.805,6.029,CST-1368DR,4437,4936,11826,01.112,551
2022-12-22T08:55:30,42.805,6.029,CST-1368DR,4437,4935,11823,01.113,551
2022-12-22T08:58:32,42.805,6.029,CST-1368DR,4437,4933,11818,01.115,551
2022-12-22T09:01:34,42.805,6.029,CST-1368DR,4437,4930,11811,01.117,551
2022-12-22T09:04:35,42.805,6.029,CST-1368DR,4437,4931,11815,01.116,551
2022-12-22T09:07:37,42.805,6.029,CST-1368DR,4437,4927,11805,01.119,551
2022-12-22T09:10:38,42.805,6.029,CST-1368DR,4437,4929,11808,01.118,551
2022-12-22T09:13:40,42.805,6.029,CST-1368DR,4437,4931,11814,01.116,551
2022-12-22T09:16:42,42.805,6.029,CST-1368DR,4437,4929,11809,01.118,551
2022-12-22T09:19:43,42.805,6.029,CST-1368DR,4437,4933,11818,01.115,551
2022-12-22T09:22:45,42.805,6.029,CST-1368DR,4437,4931,11815,01.116,551
2022-12-22T09:25:46,42.805,6.029,CST-1368DR,4437,4933,11820,01.114,551
2022-12-22T09:28:48,42.805,6.029,CST-1368DR,4437,4933,11818,01.115,551
2022-12-22T09:31:50,42.805,6.029,CST-1368DR,4437,4933,11820,01.114,551
2022-12-22T09:34:51,42.805,6.029,CST-1368DR,4437,4926,11802,01.120,551
2022-12-22T09:37:53,42.805,6.029,CST-1368DR,4437,4928,11806,01.119,551
2022-12-22T09:40:54,42.805,6.029,CST-1368DR,4437,4930,11812,01.117,551
2022-12-22T09:43:56,42.805,6.029,CST-1368DR,4437,4928,11806,01.119,551
2022-12-22T09:46:57,42.805,6.029,CST-1368DR,4437,4930,11812,01.117,551
2022-12-22T09:49:59,42.805,6.029,CST-1368DR,4437,4930,11811,01.117,551
2022-12-22T09:53:01,42.805,6.029,CST-1368DR,4437,4932,11817,01.115,551
2022-12-22T09:56:02,42.805,6.029,CST-1368DR,4437,4933,11820,01.114,551
2022-12-22T09:59:04,42.805,6.029,CST-1368DR,4437,4929,11808,01.118,551
2022-12-22T10:02:05,42.805,6.029,CST-1368DR,4437,4935,11824,01.113,551
2022-12-22T10:05:07,42.805,6.029,CST-1368DR,4437,4928,11808,01.118,551
2022-12-22T10:08:09,42.805,6.029,CST-1368DR,4437,4930,11811,01.117,551
2022-12-22T10:11:10,42.805,6.029,CST-1368DR,4437,4929,11809,01.118,551
2022-12-22T10:14:12,42.805,6.029,CST-1368DR,4437,4935,11823,01.113,551
2022-12-22T10:17:13,42.805,6.029,CST-1368DR,4437,4928,11806,01.119,551
2022-12-22T10:20:15,42.805,6.029,CST-1368DR,4437,4933,11818,01.115,551
2022-12-22T10:23:16,42.805,6.029,CST-1368DR,4437,4934,11822,01.113,551
2022-12-22T10:26:18,42.805,6.029,CST-1368DR,4437,4931,11815,01.116,551
2022-12-22T10:29:20,42.805,6.029,CST-1368DR,4437,4932,11815,01.116,551
2022-12-22T10:32:21,42.805,6.029,CST-1368DR,4437,4934,11821,01.114,551
2022-12-22T10:35:23,42.805,6.029,CST-1368DR,4437,4933,11818,01.115,551
2022-12-22T10:38:24,42.805,6.029,CST-1368DR,4437,4926,11803,01.120,551
2022-12-22T10:41:26,42.805,6.029,CST-1368DR,4437,4928,11807,01.118,551
2022-12-22T10:44:28,42.805,6.029,CST-1368DR,4437,4935,11823,01.113,551
2022-12-22T10:47:29,42.805,6.029,CST-1368DR,4437,4927,11805,01.119,551
2022-12-22T10:50:31,42.805,6.029,CST-1368DR,4437,4927,11805,01.119,551
2022-12-22T10:53:32,42.805,6.029,CST-1368DR,4437,4930,11811,01.117,551
2022-12-22T10:56:34,42.805,6.029,CST-1368DR,4437,4935,11824,01.113,551
2022-12-22T10:59:35,42.805,6.029,CST-1368DR,4437,4931,11813,01.116,551
2022-12-22T11:02:37,42.805,6.029,CST-1368DR,4437,4927,11805,01.119,551
2022-12-22T11:05:39,42.805,6.029,CST-1368DR,4437,4929,11808,01.118,551
2022-12-22T11:08:40,42.805,6.029,CST-1368DR,4437,4922,11793,01.123,551
2022-12-22T11:11:42,42.805,6.029,CST-1368DR,4437,4922,11793,01.123,551
2022-12-22T11:14:43,42.805,6.029,CST-1368DR,4437,4934,11822,01.113,551
2022-12-22T11:17:45,42.805,6.029,CST-1368DR,4437,4930,11812,01.117,551
2022-12-22T11:20:47,42.805,6.029,CST-1368DR,4437,4925,11800,01.121,551
2022-12-22T11:23:48,42.805,6.029,CST-1368DR,4437,4930,11811,01.117,551
2022-12-22T11:26:50,42.805,6.029,CST-1368DR,4437,4928,11806,01.119,551
2022-12-22T11:29:51,42.805,6.029,CST-1368DR,4437,4927,11805,01.119,551
2022-12-22T11:32:53,42.805,6.029,CST-1368DR,4437,4928,11806,01.119,551
2022-12-22T11:35:55,42.805,6.029,CST-1368DR,4437,4927,11805,01.119,551
2022-12-22T11:38:56,42.805,6.029,CST-1368DR,4437,4928,11808,01.118,551
2022-12-22T11:41:58,42.805,6.029,CST-1368DR,4437,4929,11808,01.118,551
2022-12-22T11:44:59,42.805,6.029,CST-1368DR,4437,4930,11811,01.117,551
2022-12-22T11:48:01,42.805,6.029,CST-1368DR,4437,4928,11806,01.119,551
2022-12-22T11:51:02,42.805,6.029,CST-1368DR,4437,4928,11806,01.119,551
2022-12-22T11:54:04,42.805,6.029,CST-1368DR,4437,4925,11800,01.121,551
2022-12-22T11:57:06,42.805,6.029,CST-1368DR,4437,4926,11803,01.120,551
2022-12-22T12:00:07,42.805,6.029,CST-1368DR,4437,4927,11805,01.119,551
2022-12-22T12:03:09,42.805,6.029,CST-1368DR,4437,4929,11810,01.117,551
2022-12-22T12:06:10,42.805,6.029,CST-1368DR,4437,4932,11816,01.115,551
2022-12-22T12:09:12,42.805,6.029,CST-1368DR,4437,4929,11810,01.117,551
2022-12-22T12:12:14,42.805,6.029,CST-1368DR,4437,4920,11787,01.125,551
2022-12-22T12:15:15,42.805,6.029,CST-1368DR,4437,4925,11799,01.121,551
2022-12-22T12:18:17,42.805,6.029,CST-1368DR,4437,4925,11799,01.121,551
2022-12-22T12:21:18,42.805,6.029,CST-1368DR,4437,4921,11789,01.125,551
2022-12-22T12:24:20,42.805,6.029,CST-1368DR,4437,4928,11808,01.118,551
2022-12-22T12:27:21,42.805,6.029,CST-1368DR,4437,4927,11803,01.120,551
2022-12-22T12:30:23,42.805,6.029,CST-1368DR,4437,4928,11806,01.119,551
2022-12-22T12:33:25,42.805,6.029,CST-1368DR,4437,4935,11823,01.113,551
2022-12-22T12:36:26,42.805,6.029,CST-1368DR,4437,4928,11807,01.118,551
2022-12-22T12:39:28,42.805,6.029,CST-1368DR,4437,4925,11799,01.121,551
2022-12-22T12:42:29,42.805,6.029,CST-1368DR,4437,4927,11805,01.119,551
2022-12-22T12:45:31,42.805,6.029,CST-1368DR,4437,4929,11809,01.118,551
2022-12-22T12:48:33,42.805,6.029,CST-1368DR,4437,4923,11796,01.122,551
2022-12-22T12:51:34,42.805,6.029,CST-1368DR,4437,4927,11805,01.119,551
2022-12-22T12:54:36,42.805,6.029,CST-1368DR,4437,4922,11791,01.124,551
2022-12-22T12:57:37,42.805,6.029,CST-1368DR,4437,4931,11814,01.116,551
2022-12-22T13:00:39,42.805,6.029,CST-1368DR,4437,4925,11799,01.121,551
2022-12-22T13:03:41,42.805,6.029,CST-1368DR,4437,4925,11800,01.121,551
2022-12-22T13:06:42,42.805,6.029,CST-1368DR,4437,4929,11810,01.117,551
2022-12-22T13:09:44,42.805,6.029,CST-1368DR,4437,4922,11792,01.123,551
2022-12-22T13:12:45,42.805,6.029,CST-1368DR,4437,4928,11806,01.119,551
2022-12-22T13:15:47,42.805,6.029,CST-1368DR,4437,4931,11815,01.116,551
2022-12-22T13:18:48,42.805,6.029,CST-1368DR,4437,4923,11794,01.123,551
2022-12-22T13:21:50,42.805,6.029,CST-1368DR,4437,4925,11800,01.121,551
2022-12-22T13:24:52,42.805,6.029,CST-1368DR,4437,4925,11799,01.121,551
2022-12-22T13:27:53,42.805,6.029,CST-1368DR,4437,4922,11793,01.123,551
2022-12-22T13:30:55,42.805,6.029,CST-1368DR,4437,4925,11800,01.121,551
2022-12-22T13:33:56,42.805,6.029,CST-1368DR,4437,4920,11787,01.125,551
2022-12-22T13:36:58,42.805,6.029,CST-1368DR,4437,4924,11798,01.121,551
2022-12-22T13:40:00,42.805,6.029,CST-1368DR,4437,4922,11792,01.123,551
2022-12-22T13:43:01,42.805,6.029,CST-1368DR,4437,4927,11805,01.119,551
2022-12-22T13:46:03,42.805,6.029,CST-1368DR,4437,4946,11850,01.104,551
2022-12-22T13:49:04,42.805,6.029,CST-1368DR,4437,4940,11836,01.109,551
2022-12-22T13:52:06,42.805,6.029,CST-1368DR,4437,4937,11827,01.112,551
2022-12-22T13:55:07,42.805,6.029,CST-1368DR,4437,4945,11848,01.105,551
2022-12-22T13:58:09,42.805,6.029,CST-1368DR,4437,4938,11832,01.110,551
2022-12-22T14:01:11,42.805,6.029,CST-1368DR,4437,4942,11841,01.107,551
2022-12-22T14:04:12,42.805,6.029,CST-1368DR,4437,4936,11825,01.112,551
2022-12-22T14:07:14,42.805,6.029,CST-1368DR,4437,4942,11839,01.108,551
2022-12-22T14:10:15,42.805,6.029,CST-1368DR,4437,4941,11838,01.108,551
2022-12-22T14:13:17,42.805,6.029,CST-1368DR,4437,4941,11838,01.108,551
2022-12-22T14:16:19,42.805,6.029,CST-1368DR,4437,4940,11835,01.109,551
2022-12-22T14:19:20,42.805,6.029,CST-1368DR,4437,4942,11841,01.107,551
2022-12-22T14:22:22,42.805,6.029,CST-1368DR,4437,4939,11833,01.110,551
2022-12-22T14:25:23,42.805,6.029,CST-1368DR,4437,4939,11834,01.109,551
2022-12-22T14:28:25,42.805,6.029,CST-1368DR,4437,4939,11833,01.110,551
2022-12-22T14:31:26,42.805,6.029,CST-1368DR,4437,4944,11846,01.105,551
2022-12-22T14:34:28,42.805,6.029,CST-1368DR,4437,4933,11820,01.114,551
2022-12-22T14:37:30,42.805,6.029,CST-1368DR,4437,4945,11847,01.105,551
2022-12-22T14:40:31,42.805,6.029,CST-1368DR,4437,4940,11836,01.109,551
2022-12-22T14:43:33,42.805,6.029,CST-1368DR,4437,4941,11838,01.108,551
2022-12-22T14:46:34,42.805,6.029,CST-1368DR,4437,4938,11831,01.110,551
2022-12-22T14:49:36,42.805,6.029,CST-1368DR,4437,4947,11853,01.103,551
2022-12-22T14:52:38,42.805,6.029,CST-1368DR,4437,4942,11841,01.107,551
2022-12-22T14:55:39,42.805,6.029,CST-1368DR,4437,4938,11831,01.110,551
2022-12-22T14:58:41,42.805,6.029,CST-1368DR,4437,4939,11833,01.110,551
2022-12-22T15:01:42,42.805,6.029,CST-1368DR,4437,4938,11832,01.110,551
2022-12-22T15:04:44,42.805,6.029,CST-1368DR,4437,4937,11829,01.111,551
2022-12-22T15:07:45,42.805,6.029,CST-1368DR,4437,4939,11832,01.110,551
2022-12-22T15:10:47,42.805,6.029,CST-1368DR,4437,4940,11836,01.109,551
2022-12-22T15:13:49,42.805,6.029,CST-1368DR,4437,4942,11839,01.108,551
2022-12-22T15:16:50,42.805,6.029,CST-1368DR,4437,4942,11841,01.107,551
2022-12-22T15:19:52,42.805,6.029,CST-1368DR,4437,4942,11839,01.108,551
2022-12-22T15:22:53,42.805,6.029,CST-1368DR,4437,4947,11852,01.103,551
2022-12-22T15:25:55,42.805,6.029,CST-1368DR,4437,4940,11836,01.109,551
2022-12-22T15:28:57,42.805,6.029,CST-1368DR,4437,4939,11832,01.110,551
2022-12-22T15:31:58,42.805,6.029,CST-1368DR,4437,4942,11839,01.108,551
2022-12-22T15:35:00,42.805,6.029,CST-1368DR,4437,4939,11834,01.109,551
2022-12-22T15:38:01,42.805,6.029,CST-1368DR,4437,4942,11841,01.107,551
2022-12-22T15:41:03,42.805,6.029,CST-1368DR,4437,4942,11840,01.107,551
2022-12-22T15:44:04,42.805,6.029,CST-1368DR,4437,4945,11848,01.105,551
2022-12-22T15:47:06,42.805,6.029,CST-1368DR,4437,4940,11835,01.109,551
2022-12-22T15:50:08,42.805,6.029,CST-1368DR,4437,4940,11835,01.109,551
2022-12-22T15:53:09,42.805,6.029,CST-1368DR,4437,4943,11843,01.106,551
2022-12-22T15:56:11,42.805,6.029,CST-1368DR,4437,4939,11834,01.109,551
2022-12-22T15:59:12,42.805,6.029,CST-1368DR,4437,4938,11832,01.110,551
2022-12-22T16:02:14,42.805,6.029,CST-1368DR,4437,4941,11838,01.108,551
2022-12-22T16:05:16,42.805,6.029,CST-1368DR,4437,4938,11831,01.110,551
2022-12-22T16:08:17,42.805,6.029,CST-1368DR,4437,4942,11841,01.107,551
2022-12-22T16:11:19,42.805,6.029,CST-1368DR,4437,4944,11844,01.106,551
2022-12-22T16:14:20,42.805,6.029,CST-1368DR,4437,4939,11834,01.109,551
2022-12-22T16:17:22,42.805,6.029,CST-1368DR,4437,4939,11833,01.110,551
2022-12-22T16:20:23,42.805,6.029,CST-1368DR,4437,4941,11839,01.108,551
2022-12-22T16:23:25,42.805,6.029,CST-1368DR,4437,4940,11835,01.109,551
2022-12-22T16:26:27,42.805,6.029,CST-1368DR,4437,4940,11836,01.109,551
2022-12-22T16:29:28,42.805,6.029,CST-1368DR,4437,4938,11830,01.111,551
2022-12-22T16:32:30,42.805,6.029,CST-1368DR,4437,4945,11848,01.105,551
2022-12-22T16:35:31,42.805,6.029,CST-1368DR,4437,4937,11828,01.111,551
2022-12-22T16:38:33,42.805,6.029,CST-1368DR,4437,4938,11832,01.110,551